Weather History for Fergus Falls, MN

Change the Weather History Date:

Thursday, April 4, 2013

  Actual Average Record
Temperature  
Mean Temperature 28 °F -  
Max Temperature 37 °F 44 °F 73 °F (1959)
Min Temperature 19 °F 25 °F 7 °F (1982)
Degree Days  
Heating Degree Days 37    
Moisture  
Dew Point 23 °F    
Average Humidity 77    
Maximum Humidity 93    
Minimum Humidity 60    
Precipitation  
Precipitation 0.00 in - - ()
Sea Level Pressure  
Sea Level Pressure 30.15 in    
Wind  
Wind Speed 13 mph (NNW)    
Max Wind Speed 23 mph    
Max Gust Speed 30 mph    
Visibility 10 miles    
Events      
Averages and records for this station are not official NWS values.
T = Trace of Precipitation, MM = Missing Value Source: NWS Daily Summary

Daily Weather History Graph

Daily Weather History Graph

Search for Another Location

Airport:

Trip Planner

Search our weather history database for the weather conditions in past years. The results will help you decide how hot, cold, wet, or windy it might be!

Date:

Astronomy

Apr. 04, 2013 Rise Set
Actual Time 6:57 AM CDT 7:57 PM CDT
Civil Twilight 6:27 AM CDT 8:28 PM CDT
Nautical Twilight 5:50 AM CDT 9:05 PM CDT
Astronomical Twilight 5:12 AM CDT 9:43 PM CDT
Moon 3:44 AM CDT (4/4) 1:59 PM CDT (4/4)
Length of Visible Light 14h 01m
Length of Day
12h 59m
Waning Crescent, 33% of the Moon is Illuminated
Apr 4
Waning Crescent
Apr 10
New
Apr 18
First Quarter
Apr 25
Full
May 2
Last Quarter

Hourly Weather History & Observations

Time (CDT) Temp. Windchill Dew Point Humidity Pressure Visibility Wind Dir Wind Speed Gust Speed Precip Events Conditions
12:13 AM 37.4 °F 27.8 °F 32.0 °F 81% 29.98 in 10.0 mi NNW 17.3 mph 24.2 mph N/A   Scattered Clouds
12:33 AM 35.6 °F 25.9 °F 30.2 °F 81% 29.98 in 10.0 mi NNW 16.1 mph - N/A   Scattered Clouds
12:53 AM 35.6 °F 26.6 °F 30.2 °F 81% 30.00 in 10.0 mi NNW 13.8 mph 18.4 mph N/A   Scattered Clouds
1:13 AM 35.6 °F 26.6 °F 30.2 °F 81% 30.01 in 10.0 mi NNW 13.8 mph - N/A   Clear
1:33 AM 35.6 °F 26.6 °F 28.4 °F 75% 30.01 in 10.0 mi North 13.8 mph 18.4 mph N/A   Clear
1:53 AM 33.8 °F 24.3 °F 28.4 °F 81% 30.01 in 10.0 mi NNW 13.8 mph - N/A   Clear
2:13 AM 33.8 °F 25.8 °F 26.6 °F 75% 30.02 in 10.0 mi NNW 10.4 mph - N/A   Clear
2:33 AM 33.8 °F 25.3 °F 26.6 °F 75% 30.03 in 10.0 mi NNW 11.5 mph - N/A   Clear
2:53 AM 32.0 °F 23.6 °F 26.6 °F 80% 30.03 in 10.0 mi NNW 10.4 mph - N/A   Clear
3:13 AM 32.0 °F 22.5 °F 24.8 °F 75% 30.03 in 10.0 mi NNW 12.7 mph - N/A   Clear
3:33 AM 30.2 °F 21.3 °F 24.8 °F 80% 30.04 in 10.0 mi NW 10.4 mph - N/A   Clear
3:53 AM 30.2 °F 21.3 °F 24.8 °F 80% 30.05 in 10.0 mi NNW 10.4 mph - N/A   Clear
4:13 AM 28.4 °F 20.4 °F 24.8 °F 86% 30.05 in 10.0 mi NW 8.1 mph - N/A   Clear
4:33 AM 28.4 °F 19.7 °F 24.8 °F 86% 30.05 in 10.0 mi NW 9.2 mph - N/A   Clear
4:53 AM 28.4 °F 20.4 °F 24.8 °F 86% 30.06 in 10.0 mi NW 8.1 mph - N/A   Clear
5:13 AM 28.4 °F 20.4 °F 24.8 °F 86% 30.06 in 10.0 mi NW 8.1 mph - N/A   Clear
5:33 AM 26.6 °F 18.2 °F 24.8 °F 93% 30.07 in 10.0 mi NW 8.1 mph - N/A   Clear
5:53 AM 26.6 °F 17.5 °F 24.8 °F 93% 30.07 in 10.0 mi NW 9.2 mph - N/A   Clear
6:13 AM 26.6 °F 16.2 °F 24.8 °F 93% 30.08 in 10.0 mi NW 11.5 mph - N/A   Clear
6:33 AM 26.6 °F 14.7 °F 24.8 °F 93% 30.08 in 10.0 mi NNW 15.0 mph - N/A   Clear
6:53 AM 28.4 °F 17.0 °F 24.8 °F 86% 30.09 in 10.0 mi NNW 15.0 mph - N/A   Clear
7:13 AM 26.6 °F 15.2 °F 23.0 °F 86% 30.09 in 10.0 mi NNW 13.8 mph - N/A   Clear
7:33 AM 26.6 °F 16.2 °F 23.0 °F 86% 30.11 in 10.0 mi NW 11.5 mph - N/A   Clear
7:53 AM 26.6 °F 16.2 °F 23.0 °F 86% 30.12 in 10.0 mi NNW 11.5 mph - N/A   Clear
8:13 AM 28.4 °F 18.0 °F 23.0 °F 80% 30.12 in 10.0 mi NNW 12.7 mph - N/A   Clear
8:33 AM 28.4 °F 18.0 °F 23.0 °F 80% 30.13 in 10.0 mi North 12.7 mph 16.1 mph N/A   Clear
8:53 AM 28.4 °F 17.0 °F 23.0 °F 80% 30.13 in 10.0 mi NNW 15.0 mph 18.4 mph N/A   Clear
9:13 AM 28.4 °F 17.5 °F 24.8 °F 86% 30.14 in 10.0 mi NNW 13.8 mph - N/A   Clear
9:33 AM 30.2 °F 19.3 °F 24.8 °F 80% 30.14 in 10.0 mi North 15.0 mph 19.6 mph N/A   Clear
9:53 AM 30.2 °F 20.8 °F 24.8 °F 80% 30.15 in 10.0 mi North 11.5 mph - N/A   Clear
10:13 AM 30.2 °F 20.2 °F 24.8 °F 80% 30.15 in 10.0 mi North 12.7 mph 18.4 mph N/A   Clear
10:33 AM 30.2 °F 20.2 °F 24.8 °F 80% 30.16 in 10.0 mi North 12.7 mph 19.6 mph N/A   Clear
10:53 AM 30.2 °F 20.2 °F 24.8 °F 80% 30.16 in 10.0 mi North 12.7 mph 20.7 mph N/A   Clear
11:33 AM 33.8 °F 25.3 °F 21.2 °F 60% 30.18 in 10.0 mi North 11.5 mph 19.6 mph N/A   Clear
11:53 AM 33.8 °F 24.8 °F 24.8 °F 70% 30.18 in 10.0 mi North 12.7 mph 17.3 mph N/A   Clear
12:13 PM 33.8 °F 24.3 °F 23.0 °F 65% 30.19 in 10.0 mi North 13.8 mph 18.4 mph N/A   Clear
12:33 PM 33.8 °F 24.8 °F 21.2 °F 60% 30.20 in 10.0 mi North 12.7 mph 19.6 mph N/A   Clear
12:53 PM 33.8 °F 24.8 °F 23.0 °F 65% 30.20 in 10.0 mi North 12.7 mph 25.3 mph N/A   Clear
1:13 PM 33.8 °F 23.5 °F 23.0 °F 65% 30.20 in 10.0 mi North 16.1 mph 24.2 mph N/A   Clear
1:33 PM 33.8 °F 22.2 °F 21.2 °F 60% 30.20 in 10.0 mi North 20.7 mph 27.6 mph N/A   Clear
1:53 PM 33.8 °F 23.5 °F 23.0 °F 65% 30.20 in 10.0 mi North 16.1 mph 26.5 mph N/A   Clear
2:13 PM 33.8 °F 21.6 °F 21.2 °F 60% 30.20 in 10.0 mi NNW 23.0 mph 28.8 mph N/A   Clear
2:33 PM 33.8 °F 23.9 °F 21.2 °F 60% 30.20 in 10.0 mi North 15.0 mph 24.2 mph N/A   Clear
2:53 PM 32.0 °F 22.5 °F 21.2 °F 64% 30.20 in 10.0 mi North 12.7 mph 25.3 mph N/A   Clear
3:13 PM 32.0 °F 20.5 °F 21.2 °F 64% 30.19 in 10.0 mi North 18.4 mph 26.5 mph N/A   Clear
3:33 PM 32.0 °F 21.6 °F 23.0 °F 69% 30.19 in 10.0 mi North 15.0 mph 20.7 mph N/A   Clear
3:53 PM 30.2 °F 18.5 °F 19.4 °F 64% 30.20 in 10.0 mi North 17.3 mph 29.9 mph N/A   Clear
4:13 PM 30.2 °F 17.8 °F 21.2 °F 69% 30.19 in 10.0 mi NNW 19.6 mph 27.6 mph N/A   Clear
4:33 PM 30.2 °F 18.9 °F 23.0 °F 75% 30.20 in 10.0 mi North 16.1 mph 26.5 mph N/A   Clear
4:53 PM 30.2 °F 18.5 °F 23.0 °F 75% 30.20 in 10.0 mi NNW 17.3 mph 25.3 mph N/A   Clear
5:13 PM 30.2 °F 18.9 °F 21.2 °F 69% 30.20 in 10.0 mi NNW 16.1 mph - N/A   Clear
5:33 PM 30.2 °F 18.5 °F 23.0 °F 75% 30.20 in 10.0 mi North 17.3 mph 23.0 mph N/A   Clear
5:53 PM 30.2 °F 18.1 °F 21.2 °F 69% 30.20 in 10.0 mi NNW 18.4 mph 25.3 mph N/A   Clear
6:13 PM 30.2 °F 17.8 °F 21.2 °F 69% 30.21 in 10.0 mi NNW 19.6 mph 25.3 mph N/A   Clear
6:33 PM 30.2 °F 20.8 °F 21.2 °F 69% 30.21 in 10.0 mi North 11.5 mph 23.0 mph N/A   Clear
6:53 PM 28.4 °F 19.1 °F 21.2 °F 74% 30.21 in 10.0 mi North 10.4 mph 20.7 mph N/A   Clear
7:13 PM 28.4 °F 19.1 °F 21.2 °F 74% 30.20 in 10.0 mi North 10.4 mph 17.3 mph N/A   Clear
7:33 PM 26.6 °F 16.2 °F 21.2 °F 80% 30.21 in 10.0 mi North 11.5 mph 16.1 mph N/A   Clear
7:53 PM 26.6 °F 16.2 °F 19.4 °F 74% 30.21 in 10.0 mi North 11.5 mph 17.3 mph N/A   Clear
8:13 PM 26.6 °F 16.2 °F 19.4 °F 74% 30.21 in 10.0 mi North 11.5 mph 19.6 mph N/A   Clear
8:33 PM 26.6 °F 17.5 °F 17.6 °F 69% 30.21 in 10.0 mi North 9.2 mph - N/A   Clear
8:53 PM 24.8 °F 17.9 °F 17.6 °F 74% 30.21 in 10.0 mi North 5.8 mph - N/A   Clear
9:13 PM 24.8 °F 19.1 °F 17.6 °F 74% 30.22 in 10.0 mi North 4.6 mph - N/A   Clear
9:33 PM 23.0 °F 13.9 °F 17.6 °F 80% 30.22 in 10.0 mi NNW 8.1 mph - N/A   Clear
9:53 PM 23.0 °F 13.1 °F 17.6 °F 80% 30.23 in 10.0 mi NNW 9.2 mph - N/A   Clear
10:13 PM 23.0 °F 13.9 °F 17.6 °F 80% 30.24 in 10.0 mi North 8.1 mph - N/A   Clear
10:33 PM 21.2 °F 12.6 °F 17.6 °F 86% 30.24 in 10.0 mi NNW 6.9 mph - N/A   Clear
10:53 PM 21.2 °F 13.6 °F 17.6 °F 86% 30.24 in 10.0 mi NNW 5.8 mph - N/A   Clear
11:13 PM 21.2 °F 16.4 °F 17.6 °F 86% 30.24 in 10.0 mi NW 3.5 mph - N/A   Clear
11:33 PM 19.4 °F 10.4 °F 15.8 °F 86% 30.24 in 10.0 mi North 6.9 mph - N/A   Clear
11:53 PM 19.4 °F 11.5 °F 15.8 °F 86% 30.24 in 10.0 mi NNW 5.8 mph - N/A   Clear